Location: Dammartin
(48.9032°N, 1.6195°E)
Time: 11:17:54
(UTC+00:00)

Cosmos 1943 Rocket - Pass Details

Date: 03 February 2023
Orbit: 811 x 844 km, 71.0° (Epoch: 29 March)

Event Time Altitude Azimuth Distance (km) Brightness Sun altitude
Rises 18:51:57 0° 335° (NNW) 3,414 5.7 -19.6°
Reaches altitude 10° 18:55:29 10° 357° (N) 2,476 4.6 -20.2°
Enters shadow 18:58:23 16° 28° (NNE) 2,097 4.0 -20.6°
